| time (UTC) | temp C | wind direction | speed KPH | gust KPH | rain 1hr cm | rain 24hr cm | rain mn cm | humidity % | barometer mb |
| 20260504044550 | 7 | 113 | 3.2 | 4.8 | 0.00 | 0.00 | 0.00 | 70 | 1011.3 |
| 20260504043002 | 7 | 138 | 3.2 | 6.4 | 0.00 | 0.00 | 0.00 | 67 | 1011.2 |
| 20260504041541 | 8 | 135 | 1.6 | 4.8 | 0.00 | 0.00 | 0.00 | 66 | 1011.2 |
| 20260504040009 | 8 | 223 | 1.6 | 4.8 | 0.00 | 0.00 | 0.00 | 63 | 1011.2 |
| 20260504034533 | 9 | 135 | 1.6 | 4.8 | 0.00 | 0.00 | 0.00 | 62 | 1011.3 |
| 20260504033052 | 10 | 149 | 3.2 | 9.7 | 0.00 | 0.00 | 0.00 | 60 | 1011.4 |
| 20260504031501 | 10 | 152 | 3.2 | 6.4 | 0.00 | 0.00 | 0.00 | 56 | 1011.5 |
| 20260504030031 | 10 | 324 | 1.6 | 4.8 | 0.00 | 0.00 | 0.00 | 55 | 1011.5 |
| 20260504024538 | 10 | 219 | 1.6 | 6.4 | 0.00 | 0.00 | 0.00 | 55 | 1011.6 |
| 20260504023051 | 11 | 250 | 3.2 | 11.3 | 0.00 | 0.00 | 0.00 | 55 | 1011.8 |
| 20260504021539 | 11 | 165 | 3.2 | 19.3 | 0.00 | 0.00 | 0.00 | 55 | 1011.9 |
| 20260504020057 | 11 | 189 | 6.4 | 19.3 | 0.00 | 0.00 | 0.00 | 55 | 1011.9 |
| 20260504014512 | 11 | 264 | 12.9 | 30.6 | 0.00 | 0.00 | 0.00 | 55 | 1011.9 |
| 20260504013047 | 11 | 198 | 16.1 | 27.4 | 0.00 | 0.00 | 0.00 | 55 | 1012.1 |
| 20260504011556 | 11 | 210 | 14.5 | 33.8 | 0.00 | 0.00 | 0.00 | 54 | 1011.8 |
| 20260504010023 | 11 | 232 | 9.7 | 32.2 | 0.00 | 0.00 | 0.00 | 54 | 1011.5 |
| 20260504004543 | 11 | 269 | 4.8 | 30.6 | 0.00 | 0.00 | 0.00 | 56 | 1011.8 |
| 20260504003100 | 11 | 283 | 12.9 | 27.4 | 0.00 | 0.00 | 0.00 | 55 | 1011.8 |
| 20260504001511 | 11 | 319 | 14.5 | 48.3 | 0.00 | 0.00 | 0.00 | 54 | 1011.5 |
| 20260504000050 | 11 | 304 | 8.0 | 24.1 | 0.00 | 0.00 | 0.00 | 54 | 1011.5 |
| 20260503234538 | 11 | 237 | 8.0 | 40.2 | 0.00 | 0.00 | 0.00 | 54 | 1011.5 |
| 20260503233014 | 12 | 236 | 12.9 | 37.0 | 0.00 | 0.00 | 0.00 | 51 | 1011.0 |
| 20260503231551 | 12 | 195 | 6.4 | 24.1 | 0.00 | 0.00 | 0.00 | 52 | 1010.8 |
| 20260503230115 | 12 | 1 | 3.2 | 14.5 | 0.00 | 0.00 | 0.00 | 51 | 1010.7 |
| 20260503224524 | 12 | 234 | 1.6 | 8.0 | 0.00 | 0.00 | 0.00 | 52 | 1010.7 |
| 20260503223049 | 12 | 284 | 6.4 | 9.7 | 0.00 | 0.00 | 0.00 | 52 | 1010.8 |
| 20260503221502 | 12 | 197 | 4.8 | 17.7 | 0.00 | 0.00 | 0.00 | 51 | 1010.9 |
| 20260503220034 | 12 | 259 | 6.4 | 24.1 | 0.00 | 0.00 | 0.00 | 49 | 1011.1 |
| 20260503214550 | 12 | 223 | 8.0 | 19.3 | 0.00 | 0.00 | 0.00 | 50 | 1011.1 |
| 20260503213028 | 12 | 241 | 4.8 | 16.1 | 0.00 | 0.00 | 0.00 | 53 | 1011.1 |
| 20260503211545 | 12 | 223 | 12.9 | 24.1 | 0.00 | 0.00 | 0.00 | 51 | 1011.1 |
| 20260503210008 | 12 | 248 | 8.0 | 24.1 | 0.00 | 0.00 | 0.00 | 51 | 1011.1 |
| 20260503204538 | 11 | 169 | 12.9 | 25.7 | 0.00 | 0.00 | 0.00 | 52 | 1011.3 |
| 20260503203026 | 11 | 250 | 16.1 | 53.1 | 0.00 | 0.00 | 0.00 | 53 | 1011.5 |
| 20260503201602 | 11 | 240 | 8.0 | 29.0 | 0.00 | 0.00 | 0.00 | 53 | 1011.5 |
| 20260503200040 | 12 | 278 | 12.9 | 33.8 | 0.00 | 0.00 | 0.00 | 51 | 1011.7 |
| 20260503194558 | 12 | 274 | 16.1 | 30.6 | 0.00 | 0.00 | 0.00 | 54 | 1011.9 |
| 20260503193034 | 11 | 262 | 16.1 | 27.4 | 0.00 | 0.00 | 0.00 | 51 | 1012.1 |
| 20260503191542 | 11 | 311 | 12.9 | 35.4 | 0.00 | 0.00 | 0.00 | 48 | 1012.2 |
| 20260503190105 | 12 | 265 | 14.5 | 30.6 | 0.00 | 0.00 | 0.00 | 50 | 1012.2 |
| 20260503184524 | 12 | 237 | 16.1 | 37.0 | 0.00 | 0.00 | 0.00 | 49 | 1012.1 |
| 20260503183041 | 12 | 326 | 11.3 | 25.7 | 0.00 | 0.00 | 0.00 | 48 | 1012.4 |
| 20260503181602 | 11 | 172 | 11.3 | 25.7 | 0.00 | 0.00 | 0.00 | 51 | 1012.5 |
| 20260503180022 | 11 | 214 | 9.7 | 27.4 | 0.00 | 0.00 | 0.00 | 50 | 1012.7 |
| 20260503174604 | 11 | 274 | 11.3 | 35.4 | 0.00 | 0.00 | 0.00 | 48 | 1012.8 |
| 20260503173027 | 11 | 149 | 4.8 | 32.2 | 0.00 | 0.00 | 0.00 | 52 | 1013.0 |
| 20260503171506 | 10 | 288 | 14.5 | 35.4 | 0.00 | 0.00 | 0.00 | 52 | 1013.2 |
| 20260503081541 | 2 | 285 | 4.8 | 12.9 | 0.00 | 0.00 | 0.00 | 79 | 1014.0 |
| 20260503071545 | 2 | 346 | 6.4 | 14.5 | 0.00 | 0.00 | 0.00 | 79 | 1013.9 |